Retour au catalogue

ATLAS 5 CENTAUR DEB

LostHEO
NORAD 40991·DEBRIS·🇺🇸 United States

Lancé Sep 2, 2015 depuis Cape Canaveral Space Force Station

Loading…

Prochains Passages (prochaines 24 heures)

TLE

PériméSource: Space-Track

Époque: Oct 8, 2017, 21:07 UTC

1 40991U 15044C   17281.88019700  .00000101  00000-0  00000+0 0  9990
2 40991  18.3581 189.5748 6146201  68.9010 344.1042  2.08537456 15720

Suivez ATLAS 5 CENTAUR DEB en temps réel avec AllMySat

Download on the App Store